Time,TemperatureF,DewpointF,PressureIn,WindDirection,WindDirectionDegrees,WindSpeedMPH,WindSpeedGustMPH,Humidity,HourlyPrecipIn,Conditions,Clouds,dailyrainin,SoftwareType,DateUTC
2013-02-06 00:04:00,54.0,53.7,30.05,East,96,0.0,0.0,99,0.00,,---,0.00,VWS V14.01,2013-02-06 06:04:00,
2013-02-06 00:09:00,53.9,53.6,30.05,East,96,0.0,0.0,99,0.00,,---,0.00,VWS V14.01,2013-02-06 06:09:00,
2013-02-06 00:15:00,53.9,53.6,30.05,East,96,0.0,0.0,99,0.00,,---,0.00,VWS V14.01,2013-02-06 06:15:00,
2013-02-06 00:20:00,53.8,53.5,30.05,East,96,0.0,0.0,99,0.00,,---,0.00,VWS V14.01,2013-02-06 06:20:00,
2013-02-06 00:25:00,53.7,53.4,30.05,East,96,0.0,0.0,99,0.00,,---,0.00,VWS V14.01,2013-02-06 06:25:00,
2013-02-06 00:30:00,53.6,53.3,30.05,East,96,0.0,0.0,99,0.00,,---,0.00,VWS V14.01,2013-02-06 06:30:00,
2013-02-06 00:36:00,53.4,52.8,30.05,East,96,0.0,0.0,98,0.00,,---,0.00,VWS V14.01,2013-02-06 06:36:00,
2013-02-06 00:41:00,53.3,53.0,30.05,East,96,0.0,0.0,99,0.00,,---,0.00,VWS V14.01,2013-02-06 06:41:00,
2013-02-06 00:47:00,53.3,53.0,30.05,East,96,0.0,0.0,99,0.00,,---,0.00,VWS V14.01,2013-02-06 06:47:00,
2013-02-06 00:52:00,53.5,53.2,30.05,East,96,0.0,0.0,99,0.01,,---,0.01,VWS V14.01,2013-02-06 06:52:00,
2013-02-06 00:57:00,53.6,53.3,30.05,East,96,0.0,0.0,99,0.01,,---,0.01,VWS V14.01,2013-02-06 06:57:00,
2013-02-06 01:02:00,53.8,53.5,30.06,East,96,0.0,0.0,99,0.01,,---,0.01,VWS V14.01,2013-02-06 07:02:00,
2013-02-06 01:07:00,53.9,53.6,30.06,East,96,0.0,0.0,99,0.01,,---,0.01,VWS V14.01,2013-02-06 07:07:00,
2013-02-06 01:13:00,54.1,53.8,30.06,East,96,0.0,0.0,99,0.01,,---,0.01,VWS V14.01,2013-02-06 07:13:00,
2013-02-06 01:18:00,54.0,53.7,30.06,East,96,0.0,0.0,99,0.01,,---,0.01,VWS V14.01,2013-02-06 07:18:00,
2013-02-06 01:23:00,54.0,53.7,30.06,East,96,0.0,0.0,99,0.01,,---,0.01,VWS V14.01,2013-02-06 07:23:00,
2013-02-06 01:28:00,53.9,53.6,30.06,East,96,0.0,0.0,99,0.01,,---,0.01,VWS V14.01,2013-02-06 07:28:00,
2013-02-06 01:34:00,53.9,53.6,30.05,East,96,0.0,0.0,99,0.01,,---,0.01,VWS V14.01,2013-02-06 07:34:00,
2013-02-06 01:39:00,54.0,53.7,30.05,East,96,0.0,0.0,99,0.01,,---,0.01,VWS V14.01,2013-02-06 07:39:00,
2013-02-06 01:44:00,54.1,53.8,30.05,East,96,0.0,0.0,99,0.01,,---,0.01,VWS V14.01,2013-02-06 07:44:00,
2013-02-06 01:49:00,54.1,53.8,30.05,East,96,0.0,0.0,99,0.01,,---,0.01,VWS V14.01,2013-02-06 07:49:00,
2013-02-06 01:55:00,54.2,53.9,30.05,East,96,0.0,0.0,99,0.00,,---,0.01,VWS V14.01,2013-02-06 07:55:00,
2013-02-06 02:01:00,54.4,54.1,30.05,East,96,0.0,0.0,99,0.00,,---,0.01,VWS V14.01,2013-02-06 08:01:00,
2013-02-06 02:06:00,54.6,54.3,30.05,East,96,0.0,0.0,99,0.00,,---,0.01,VWS V14.01,2013-02-06 08:06:00,
2013-02-06 02:11:00,54.7,54.4,30.05,East,96,0.0,0.0,99,0.00,,---,0.01,VWS V14.01,2013-02-06 08:11:00,
2013-02-06 02:16:00,54.9,54.6,30.05,East,96,0.0,0.0,99,0.00,,---,0.01,VWS V14.01,2013-02-06 08:16:00,
2013-02-06 02:21:00,55.1,54.8,30.05,East,96,0.0,0.0,99,0.00,,---,0.01,VWS V14.01,2013-02-06 08:21:00,
2013-02-06 02:26:00,55.3,55.0,30.05,East,96,0.0,0.0,99,0.00,,---,0.01,VWS V14.01,2013-02-06 08:26:00,
2013-02-06 02:32:00,55.6,55.3,30.05,East,96,0.0,0.0,99,0.00,,---,0.01,VWS V14.01,2013-02-06 08:32:00,
2013-02-06 02:37:00,55.8,55.5,30.05,East,96,0.0,0.0,99,0.00,,---,0.01,VWS V14.01,2013-02-06 08:37:00,
2013-02-06 02:42:00,55.9,55.6,30.05,East,96,0.0,0.0,99,0.00,,---,0.01,VWS V14.01,2013-02-06 08:42:00,
2013-02-06 02:47:00,56.0,55.7,30.05,East,96,0.0,0.0,99,0.00,,---,0.01,VWS V14.01,2013-02-06 08:47:00,
2013-02-06 02:52:00,55.9,55.6,30.05,East,96,0.0,0.0,99,0.00,,---,0.01,VWS V14.01,2013-02-06 08:52:00,
2013-02-06 02:57:00,55.9,55.6,30.06,East,96,0.0,0.0,99,0.00,,---,0.01,VWS V14.01,2013-02-06 08:57:00,
2013-02-06 03:04:00,55.9,55.6,30.06,East,96,0.0,1.0,99,0.00,,---,0.01,VWS V14.01,2013-02-06 09:04:00,
2013-02-06 03:10:00,55.9,55.6,30.06,East,87,0.0,1.0,99,0.00,,---,0.01,VWS V14.01,2013-02-06 09:10:00,
2013-02-06 03:15:00,55.8,55.5,30.06,ENE,75,0.0,0.0,99,0.00,,---,0.01,VWS V14.01,2013-02-06 09:15:00,
2013-02-06 03:20:00,55.9,55.6,30.06,ENE,75,0.0,0.0,99,0.00,,---,0.01,VWS V14.01,2013-02-06 09:20:00,
2013-02-06 03:25:00,55.8,55.5,30.06,ENE,75,0.0,0.0,99,0.00,,---,0.01,VWS V14.01,2013-02-06 09:25:00,
2013-02-06 03:30:00,55.7,55.4,30.06,ENE,76,0.0,0.0,99,0.00,,---,0.01,VWS V14.01,2013-02-06 09:30:00,
2013-02-06 03:36:00,55.7,55.4,30.06,ENE,77,0.0,0.0,99,0.00,,---,0.01,VWS V14.01,2013-02-06 09:36:00,
2013-02-06 03:41:00,55.7,55.4,30.06,ENE,77,0.0,0.0,99,0.00,,---,0.01,VWS V14.01,2013-02-06 09:41:00,
2013-02-06 03:46:00,55.7,55.4,30.06,ENE,62,0.0,0.0,99,0.00,,---,0.01,VWS V14.01,2013-02-06 09:46:00,
2013-02-06 03:51:00,55.7,55.4,30.07,ENE,61,0.0,0.0,99,0.00,,---,0.01,VWS V14.01,2013-02-06 09:51:00,
2013-02-06 03:57:00,55.7,55.4,30.06,ENE,76,0.0,0.0,99,0.00,,---,0.01,VWS V14.01,2013-02-06 09:57:00,
2013-02-06 04:02:00,55.6,55.3,30.06,ENE,67,0.0,0.0,99,0.00,,---,0.01,VWS V14.01,2013-02-06 10:02:00,
2013-02-06 04:07:00,55.5,55.2,30.07,ENE,76,0.0,0.0,99,0.00,,---,0.01,VWS V14.01,2013-02-06 10:07:00,
2013-02-06 04:12:00,55.6,55.3,30.07,ENE,69,0.0,0.0,99,0.00,,---,0.01,VWS V14.01,2013-02-06 10:12:00,
2013-02-06 04:17:00,55.6,55.3,30.07,ENE,72,0.0,0.0,99,0.00,,---,0.01,VWS V14.01,2013-02-06 10:17:00,
2013-02-06 04:22:00,55.6,55.3,30.07,ENE,72,0.0,0.0,99,0.00,,---,0.01,VWS V14.01,2013-02-06 10:22:00,
2013-02-06 04:27:00,55.7,55.4,30.07,ENE,72,0.0,0.0,99,0.00,,---,0.01,VWS V14.01,2013-02-06 10:27:00,
2013-02-06 04:33:00,55.6,55.3,30.07,ENE,72,0.0,0.0,99,0.00,,---,0.01,VWS V14.01,2013-02-06 10:33:00,
2013-02-06 04:38:00,55.6,55.3,30.08,NE,50,0.0,0.0,99,0.00,,---,0.01,VWS V14.01,2013-02-06 10:38:00,
2013-02-06 04:43:00,55.5,55.2,30.08,NNE,12,0.0,1.0,99,0.00,,---,0.01,VWS V14.01,2013-02-06 10:43:00,
2013-02-06 04:48:00,55.4,55.1,30.08,North,352,0.0,0.0,99,0.00,,---,0.01,VWS V14.01,2013-02-06 10:48:00,
2013-02-06 04:54:00,55.4,55.1,30.09,NNW,340,0.0,0.0,99,0.00,,---,0.01,VWS V14.01,2013-02-06 10:54:00,
2013-02-06 05:00:00,55.4,55.1,30.09,ESE,118,0.0,0.0,99,0.00,,---,0.01,VWS V14.01,2013-02-06 11:00:00,
2013-02-06 05:07:00,55.4,55.1,30.09,NE,39,0.0,0.0,99,0.00,,---,0.01,VWS V14.01,2013-02-06 11:07:00,
2013-02-06 05:12:00,55.4,55.1,30.09,NE,39,0.0,0.0,99,0.00,,---,0.01,VWS V14.01,2013-02-06 11:12:00,
2013-02-06 05:17:00,55.4,55.1,30.09,NE,56,0.0,0.0,99,0.00,,---,0.01,VWS V14.01,2013-02-06 11:17:00,
2013-02-06 05:23:00,55.4,55.1,30.09,NE,55,0.0,0.0,99,0.00,,---,0.01,VWS V14.01,2013-02-06 11:23:00,
2013-02-06 05:29:00,55.5,55.2,30.09,NE,56,0.0,0.0,99,0.00,,---,0.01,VWS V14.01,2013-02-06 11:29:00,
2013-02-06 05:34:00,55.5,55.2,30.09,NE,56,0.0,0.0,99,0.00,,---,0.01,VWS V14.01,2013-02-06 11:34:00,
2013-02-06 05:39:00,55.6,55.3,30.09,NE,56,0.0,0.0,99,0.00,,---,0.01,VWS V14.01,2013-02-06 11:39:00,
2013-02-06 05:44:00,55.6,55.3,30.09,NE,56,0.0,0.0,99,0.00,,---,0.01,VWS V14.01,2013-02-06 11:44:00,
2013-02-06 05:49:00,55.7,55.4,30.09,NE,56,0.0,0.0,99,0.00,,---,0.01,VWS V14.01,2013-02-06 11:49:00,
2013-02-06 05:55:00,55.7,55.4,30.10,NE,56,0.0,0.0,99,0.00,,---,0.01,VWS V14.01,2013-02-06 11:55:00,
2013-02-06 06:01:00,55.8,55.5,30.10,ENE,69,0.0,0.0,99,0.00,,---,0.01,VWS V14.01,2013-02-06 12:01:00,
2013-02-06 06:06:00,55.9,55.6,30.09,ENE,68,0.0,0.0,99,0.00,,---,0.01,VWS V14.01,2013-02-06 12:06:00,
2013-02-06 06:12:00,55.9,55.6,30.10,ENE,68,0.0,0.0,99,0.00,,---,0.01,VWS V14.01,2013-02-06 12:12:00,
2013-02-06 06:17:00,56.0,55.7,30.10,ENE,68,0.0,0.0,99,0.00,,---,0.01,VWS V14.01,2013-02-06 12:17:00,
2013-02-06 06:23:00,56.1,55.8,30.10,ENE,68,0.0,0.0,99,0.00,,---,0.01,VWS V14.01,2013-02-06 12:23:00,
2013-02-06 06:28:00,56.3,56.0,30.10,NE,56,0.0,0.0,99,0.00,,---,0.01,VWS V14.01,2013-02-06 12:28:00,
2013-02-06 06:33:00,56.3,56.0,30.10,ENE,76,0.0,0.0,99,0.00,,---,0.01,VWS V14.01,2013-02-06 12:33:00,
2013-02-06 06:39:00,56.4,56.1,30.10,ENE,74,0.0,0.0,99,0.00,,---,0.01,VWS V14.01,2013-02-06 12:39:00,
2013-02-06 06:44:00,56.4,56.1,30.10,ENE,76,0.0,0.0,99,0.00,,---,0.01,VWS V14.01,2013-02-06 12:44:00,
2013-02-06 06:49:00,56.6,56.3,30.10,ENE,75,0.0,0.0,99,0.00,,---,0.01,VWS V14.01,2013-02-06 12:49:00,
2013-02-06 06:55:00,56.7,56.4,30.10,ENE,61,0.0,0.0,99,0.00,,---,0.01,VWS V14.01,2013-02-06 12:55:00,
2013-02-06 07:01:00,56.7,56.4,30.10,ENE,68,1.0,2.0,99,0.00,,---,0.01,VWS V14.01,2013-02-06 13:01:00,
2013-02-06 07:06:00,56.7,56.4,30.11,ENE,71,0.0,0.0,99,0.00,,---,0.01,VWS V14.01,2013-02-06 13:06:00,
2013-02-06 07:12:00,56.7,56.4,30.10,ENE,70,0.0,1.0,99,0.00,,---,0.01,VWS V14.01,2013-02-06 13:12:00,
2013-02-06 07:18:00,56.8,56.5,30.11,ESE,112,0.0,0.0,99,0.00,,---,0.01,VWS V14.01,2013-02-06 13:18:00,
2013-02-06 07:23:00,56.8,56.5,30.11,East,96,0.0,1.0,99,0.00,,---,0.01,VWS V14.01,2013-02-06 13:23:00,
2013-02-06 07:28:00,56.9,56.6,30.11,ENE,61,1.0,2.0,99,0.00,,---,0.01,VWS V14.01,2013-02-06 13:28:00,
2013-02-06 07:33:00,57.0,56.7,30.11,East,95,1.0,1.0,99,0.00,,---,0.01,VWS V14.01,2013-02-06 13:33:00,
2013-02-06 07:38:00,57.0,56.7,30.11,ENE,69,3.0,3.0,99,0.00,,---,0.01,VWS V14.01,2013-02-06 13:38:00,
2013-02-06 07:43:00,57.1,56.8,30.11,ENE,78,2.0,4.0,99,0.00,,---,0.01,VWS V14.01,2013-02-06 13:43:00,
2013-02-06 07:49:00,57.2,56.9,30.11,East,86,1.0,2.0,99,0.00,,---,0.01,VWS V14.01,2013-02-06 13:49:00,
2013-02-06 07:55:00,57.2,56.9,30.12,NE,56,4.0,4.0,99,0.00,,---,0.01,VWS V14.01,2013-02-06 13:55:00,
2013-02-06 08:00:00,57.2,56.9,30.12,ESE,109,0.0,1.0,99,0.00,,---,0.01,VWS V14.01,2013-02-06 14:00:00,
2013-02-06 08:05:00,57.3,57.0,30.12,ENE,73,3.0,3.0,99,0.00,,---,0.01,VWS V14.01,2013-02-06 14:05:00,
2013-02-06 08:10:00,57.2,56.9,30.13,ENE,76,1.0,3.0,99,0.00,,---,0.01,VWS V14.01,2013-02-06 14:10:00,
2013-02-06 08:16:00,57.3,57.0,30.12,ESE,117,1.0,1.0,99,0.00,,---,0.01,VWS V14.01,2013-02-06 14:16:00,
2013-02-06 08:21:00,57.6,57.3,30.13,ESE,116,0.0,0.0,99,0.00,,---,0.01,VWS V14.01,2013-02-06 14:21:00,
2013-02-06 08:26:00,57.6,57.3,30.13,ESE,114,0.0,0.0,99,0.00,,---,0.01,VWS V14.01,2013-02-06 14:26:00,
2013-02-06 08:31:00,57.7,57.4,30.13,ENE,71,2.0,2.0,99,0.00,,---,0.01,VWS V14.01,2013-02-06 14:31:00,
2013-02-06 08:37:00,57.9,57.6,30.13,SE,134,1.0,2.0,99,0.00,,---,0.01,VWS V14.01,2013-02-06 14:37:00,
2013-02-06 08:42:00,58.0,57.7,30.13,ENE,68,0.0,2.0,99,0.00,,---,0.01,VWS V14.01,2013-02-06 14:42:00,
2013-02-06 08:47:00,57.9,57.6,30.13,East,80,2.0,4.0,99,0.00,,---,0.01,VWS V14.01,2013-02-06 14:47:00,
2013-02-06 08:52:00,58.0,57.7,30.13,ENE,64,0.0,3.0,99,0.00,,---,0.01,VWS V14.01,2013-02-06 14:52:00,
2013-02-06 08:57:00,58.2,57.9,30.14,ENE,77,2.0,3.0,99,0.00,,---,0.01,VWS V14.01,2013-02-06 14:57:00,
2013-02-06 09:02:00,58.2,57.9,30.13,ENE,70,1.0,3.0,99,0.00,,---,0.01,VWS V14.01,2013-02-06 15:02:00,
2013-02-06 09:07:00,58.2,57.9,30.14,ESE,122,2.0,5.0,99,0.00,,---,0.01,VWS V14.01,2013-02-06 15:07:00,
2013-02-06 09:12:00,58.4,58.1,30.15,East,98,2.0,2.0,99,0.00,,---,0.01,VWS V14.01,2013-02-06 15:12:00,
2013-02-06 09:17:00,58.6,58.3,30.15,East,87,1.0,2.0,99,0.00,,---,0.01,VWS V14.01,2013-02-06 15:17:00,
2013-02-06 09:22:00,58.8,58.5,30.15,ESE,114,1.0,2.0,99,0.00,,---,0.01,VWS V14.01,2013-02-06 15:22:00,
2013-02-06 09:27:00,58.9,58.6,30.15,East,86,0.0,1.0,99,0.00,,---,0.01,VWS V14.01,2013-02-06 15:27:00,
2013-02-06 09:33:00,59.2,58.9,30.16,ESE,121,0.0,0.0,99,0.00,,---,0.01,VWS V14.01,2013-02-06 15:33:00,
2013-02-06 09:38:00,59.5,59.2,30.16,East,89,0.0,0.0,99,0.00,,---,0.01,VWS V14.01,2013-02-06 15:38:00,
2013-02-06 09:43:00,59.6,59.3,30.16,ENE,68,0.0,1.0,99,0.00,,---,0.01,VWS V14.01,2013-02-06 15:43:00,
2013-02-06 09:49:00,59.5,59.2,30.16,East,83,2.0,4.0,99,0.00,,---,0.01,VWS V14.01,2013-02-06 15:49:00,
2013-02-06 09:55:00,59.7,59.4,30.16,ENE,71,2.0,2.0,99,0.00,,---,0.01,VWS V14.01,2013-02-06 15:55:00,
2013-02-06 10:00:00,59.7,59.4,30.16,NE,44,4.0,5.0,99,0.00,,---,0.01,VWS V14.01,2013-02-06 16:00:00,
2013-02-06 10:05:00,59.8,59.5,30.16,NNE,25,3.0,5.0,99,0.00,,---,0.01,VWS V14.01,2013-02-06 16:05:00,
2013-02-06 10:10:00,59.8,59.5,30.16,East,85,1.0,2.0,99,0.00,,---,0.01,VWS V14.01,2013-02-06 16:10:00,
2013-02-06 10:16:00,60.3,60.0,30.15,North,351,2.0,2.0,99,0.00,,---,0.01,VWS V14.01,2013-02-06 16:16:00,
2013-02-06 10:21:00,60.3,60.0,30.16,ENE,62,2.0,3.0,99,0.00,,---,0.01,VWS V14.01,2013-02-06 16:21:00,
2013-02-06 10:26:00,60.5,60.2,30.16,ENE,73,4.0,4.0,99,0.00,,---,0.01,VWS V14.01,2013-02-06 16:26:00,
2013-02-06 10:31:00,60.4,59.8,30.15,NE,35,3.0,5.0,98,0.00,,---,0.01,VWS V14.01,2013-02-06 16:31:00,
2013-02-06 10:36:00,60.8,60.2,30.15,ENE,61,1.0,3.0,98,0.00,,---,0.01,VWS V14.01,2013-02-06 16:36:00,
2013-02-06 10:42:00,61.5,60.3,30.15,ENE,76,6.0,7.0,96,0.00,,---,0.01,VWS V14.01,2013-02-06 16:42:00,
2013-02-06 10:48:00,62.0,60.6,30.15,ENE,65,5.0,7.0,95,0.00,,---,0.01,VWS V14.01,2013-02-06 16:48:00,
2013-02-06 10:53:00,62.0,60.0,30.14,ENE,65,2.0,6.0,93,0.00,,---,0.01,VWS V14.01,2013-02-06 16:53:00,
2013-02-06 10:59:00,62.6,60.5,30.14,East,82,2.0,3.0,93,0.00,,---,0.01,VWS V14.01,2013-02-06 16:59:00,
2013-02-06 11:05:00,63.3,60.3,30.14,NE,56,1.0,5.0,90,0.00,,---,0.01,VWS V14.01,2013-02-06 17:05:00,
2013-02-06 11:10:00,63.1,60.1,30.14,NNW,345,3.0,3.0,90,0.00,,---,0.01,VWS V14.01,2013-02-06 17:10:00,
2013-02-06 11:16:00,63.6,60.3,30.14,NNW,347,0.0,3.0,89,0.00,,---,0.01,VWS V14.01,2013-02-06 17:16:00,
2013-02-06 11:21:00,64.2,60.6,30.14,NNE,26,0.0,2.0,88,0.00,,---,0.01,VWS V14.01,2013-02-06 17:21:00,
2013-02-06 11:26:00,64.4,60.5,30.14,SE,142,0.0,3.0,87,0.00,,---,0.01,VWS V14.01,2013-02-06 17:26:00,
2013-02-06 11:31:00,65.0,61.0,30.14,SE,124,2.0,4.0,87,0.00,,---,0.01,VWS V14.01,2013-02-06 17:31:00,
2013-02-06 11:36:00,66.0,61.7,30.13,ESE,122,2.0,2.0,86,0.00,,---,0.01,VWS V14.01,2013-02-06 17:36:00,
2013-02-06 11:41:00,66.6,61.3,30.13,SSE,155,2.0,5.0,83,0.00,,---,0.01,VWS V14.01,2013-02-06 17:41:00,
2013-02-06 11:46:00,66.5,60.8,30.13,SE,135,3.0,3.0,82,0.00,,---,0.01,VWS V14.01,2013-02-06 17:46:00,
2013-02-06 11:53:00,66.4,60.7,30.13,SSE,149,0.0,2.0,82,0.00,,---,0.01,VWS V14.01,2013-02-06 17:53:00,
2013-02-06 11:58:00,67.0,61.3,30.12,East,101,3.0,3.0,82,0.00,,---,0.01,VWS V14.01,2013-02-06 17:58:00,
2013-02-06 12:03:00,67.2,61.2,30.12,ESE,105,2.0,4.0,81,0.00,,---,0.01,VWS V14.01,2013-02-06 18:03:00,
2013-02-06 12:08:00,67.5,61.5,30.11,ENE,70,3.0,4.0,81,0.00,,---,0.01,VWS V14.01,2013-02-06 18:08:00,
2013-02-06 12:13:00,68.1,61.0,30.11,ESE,114,3.0,4.0,78,0.00,,---,0.01,VWS V14.01,2013-02-06 18:13:00,
2013-02-06 12:19:00,68.4,61.3,30.11,ESE,108,2.0,5.0,78,0.00,,---,0.01,VWS V14.01,2013-02-06 18:19:00,
2013-02-06 12:24:00,68.8,61.3,30.11,North,354,2.0,3.0,77,0.00,,---,0.01,VWS V14.01,2013-02-06 18:24:00,
2013-02-06 12:29:00,68.9,61.0,30.11,NW,318,1.0,2.0,76,0.00,,---,0.01,VWS V14.01,2013-02-06 18:29:00,
2013-02-06 12:34:00,69.6,61.3,30.11,NNE,25,2.0,4.0,75,0.00,,---,0.01,VWS V14.01,2013-02-06 18:34:00,
2013-02-06 12:40:00,70.0,61.3,30.10,SE,128,1.0,3.0,74,0.00,,---,0.01,VWS V14.01,2013-02-06 18:40:00,
2013-02-06 12:46:00,70.1,61.4,30.10,ENE,76,2.0,3.0,74,0.00,,---,0.01,VWS V14.01,2013-02-06 18:46:00,
2013-02-06 12:52:00,70.1,61.0,30.09,ENE,58,2.0,7.0,73,0.00,,---,0.01,VWS V14.01,2013-02-06 18:52:00,
2013-02-06 12:57:00,70.3,61.2,30.09,SSE,149,0.0,4.0,73,0.00,,---,0.01,VWS V14.01,2013-02-06 18:57:00,
2013-02-06 13:02:00,70.4,61.0,30.09,East,79,1.0,4.0,72,0.00,,---,0.01,VWS V14.01,2013-02-06 19:02:00,
2013-02-06 13:07:00,70.8,60.5,30.08,ENE,73,6.0,7.0,70,0.00,,---,0.01,VWS V14.01,2013-02-06 19:07:00,
2013-02-06 13:12:00,71.1,61.2,30.08,ENE,68,4.0,7.0,71,0.00,,---,0.01,VWS V14.01,2013-02-06 19:12:00,
2013-02-06 13:17:00,70.9,61.0,30.08,SE,146,4.0,6.0,71,0.00,,---,0.01,VWS V14.01,2013-02-06 19:17:00,
2013-02-06 13:22:00,70.6,61.1,30.07,East,93,1.0,2.0,72,0.00,,---,0.01,VWS V14.01,2013-02-06 19:22:00,
2013-02-06 13:28:00,70.9,61.0,30.07,NE,55,5.0,8.0,71,0.00,,---,0.01,VWS V14.01,2013-02-06 19:28:00,
2013-02-06 13:33:00,70.9,61.0,30.07,SE,141,1.0,2.0,71,0.00,,---,0.01,VWS V14.01,2013-02-06 19:33:00,
2013-02-06 13:38:00,70.9,61.0,30.07,ESE,105,1.0,3.0,71,0.00,,---,0.01,VWS V14.01,2013-02-06 19:38:00,
2013-02-06 13:43:00,70.9,61.0,30.07,East,97,4.0,5.0,71,0.00,,---,0.01,VWS V14.01,2013-02-06 19:43:00,
2013-02-06 13:48:00,70.8,60.9,30.07,East,87,1.0,4.0,71,0.00,,---,0.01,VWS V14.01,2013-02-06 19:48:00,
2013-02-06 13:54:00,70.6,60.8,30.07,NE,55,5.0,5.0,71,0.00,,---,0.01,VWS V14.01,2013-02-06 19:54:00,
2013-02-06 13:59:00,70.3,60.9,30.06,NE,56,2.0,3.0,72,0.00,,---,0.01,VWS V14.01,2013-02-06 19:59:00,
2013-02-06 14:05:00,70.7,60.8,30.06,ESE,108,3.0,3.0,71,0.00,,---,0.01,VWS V14.01,2013-02-06 20:05:00,
2013-02-06 14:10:00,70.5,60.7,30.05,NE,47,4.0,5.0,71,0.00,,---,0.01,VWS V14.01,2013-02-06 20:10:00,
2013-02-06 14:16:00,70.7,60.8,30.05,East,91,3.0,4.0,71,0.00,,---,0.01,VWS V14.01,2013-02-06 20:16:00,
2013-02-06 14:21:00,71.6,61.3,30.05,East,96,4.0,4.0,70,0.00,,---,0.01,VWS V14.01,2013-02-06 20:21:00,
2013-02-06 14:26:00,72.4,61.2,30.05,East,101,2.0,3.0,68,0.00,,---,0.01,VWS V14.01,2013-02-06 20:26:00,
2013-02-06 14:31:00,72.5,60.9,30.05,ESE,115,2.0,4.0,67,0.00,,---,0.01,VWS V14.01,2013-02-06 20:31:00,
2013-02-06 14:36:00,71.6,60.5,30.05,ESE,113,6.0,8.0,68,0.00,,---,0.01,VWS V14.01,2013-02-06 20:36:00,
2013-02-06 14:41:00,70.9,60.2,30.05,SE,131,2.0,6.0,69,0.00,,---,0.01,VWS V14.01,2013-02-06 20:41:00,
2013-02-06 14:46:00,71.1,60.4,30.05,ENE,64,2.0,3.0,69,0.00,,---,0.01,VWS V14.01,2013-02-06 20:46:00,
2013-02-06 14:51:00,71.8,61.1,30.05,East,80,4.0,6.0,69,0.00,,---,0.01,VWS V14.01,2013-02-06 20:51:00,
2013-02-06 14:57:00,71.8,60.7,30.05,SE,134,1.0,5.0,68,0.00,,---,0.01,VWS V14.01,2013-02-06 20:57:00,
2013-02-06 15:02:00,71.7,60.6,30.04,SE,128,1.0,5.0,68,0.00,,---,0.01,VWS V14.01,2013-02-06 21:02:00,
2013-02-06 15:08:00,71.4,60.7,30.04,North,351,2.0,2.0,69,0.00,,---,0.01,VWS V14.01,2013-02-06 21:08:00,
2013-02-06 15:13:00,71.9,61.2,30.04,SE,139,2.0,3.0,69,0.00,,---,0.01,VWS V14.01,2013-02-06 21:13:00,
2013-02-06 15:19:00,71.3,60.2,30.04,NE,51,3.0,4.0,68,0.00,,---,0.01,VWS V14.01,2013-02-06 21:19:00,
2013-02-06 15:24:00,70.8,60.5,30.04,SE,131,0.0,0.0,70,0.00,,---,0.01,VWS V14.01,2013-02-06 21:24:00,
2013-02-06 15:29:00,71.1,60.8,30.04,ESE,111,1.0,1.0,70,0.00,,---,0.01,VWS V14.01,2013-02-06 21:29:00,
2013-02-06 15:34:00,71.4,60.7,30.04,SE,135,1.0,2.0,69,0.00,,---,0.01,VWS V14.01,2013-02-06 21:34:00,
2013-02-06 15:39:00,71.4,60.3,30.04,East,93,4.0,4.0,68,0.00,,---,0.01,VWS V14.01,2013-02-06 21:39:00,
2013-02-06 15:44:00,70.9,60.2,30.03,SE,138,2.0,3.0,69,0.00,,---,0.01,VWS V14.01,2013-02-06 21:44:00,
2013-02-06 15:49:00,70.5,60.7,30.03,ESE,105,0.0,2.0,71,0.00,,---,0.01,VWS V14.01,2013-02-06 21:49:00,
2013-02-06 15:55:00,70.3,60.5,30.03,East,88,2.0,3.0,71,0.00,,---,0.01,VWS V14.01,2013-02-06 21:55:00,
2013-02-06 16:00:00,70.1,60.3,30.03,ESE,115,0.0,1.0,71,0.00,,---,0.01,VWS V14.01,2013-02-06 22:00:00,
2013-02-06 16:05:00,70.1,60.3,30.03,East,96,2.0,3.0,71,0.00,,---,0.01,VWS V14.01,2013-02-06 22:05:00,
2013-02-06 16:10:00,70.3,60.9,30.02,East,79,1.0,1.0,72,0.00,,---,0.01,VWS V14.01,2013-02-06 22:10:00,
2013-02-06 16:15:00,70.6,60.8,30.02,East,94,2.0,2.0,71,0.00,,---,0.01,VWS V14.01,2013-02-06 22:15:00,
2013-02-06 16:20:00,70.5,60.7,30.02,East,79,1.0,2.0,71,0.00,,---,0.01,VWS V14.01,2013-02-06 22:20:00,
2013-02-06 16:25:00,70.5,60.7,30.02,ENE,73,3.0,3.0,71,0.00,,---,0.01,VWS V14.01,2013-02-06 22:25:00,
2013-02-06 16:30:00,70.2,60.8,30.02,East,89,1.0,2.0,72,0.00,,---,0.01,VWS V14.01,2013-02-06 22:30:00,
2013-02-06 16:35:00,70.1,60.7,30.02,SE,139,0.0,0.0,72,0.00,,---,0.01,VWS V14.01,2013-02-06 22:35:00,
2013-02-06 16:40:00,70.0,60.6,30.03,SE,139,0.0,1.0,72,0.00,,---,0.01,VWS V14.01,2013-02-06 22:40:00,
2013-02-06 16:45:00,69.9,60.9,30.03,ESE,122,1.0,1.0,73,0.00,,---,0.01,VWS V14.01,2013-02-06 22:45:00,
2013-02-06 16:50:00,69.8,61.2,30.04,ESE,123,0.0,1.0,74,0.00,,---,0.01,VWS V14.01,2013-02-06 22:50:00,
2013-02-06 16:55:00,69.6,61.0,30.04,North,351,0.0,1.0,74,0.00,,---,0.01,VWS V14.01,2013-02-06 22:55:00,
2013-02-06 17:00:00,69.0,61.1,30.04,WNW,290,1.0,1.0,76,0.00,,---,0.01,VWS V14.01,2013-02-06 23:00:00,
2013-02-06 17:05:00,68.4,60.9,30.04,SE,125,0.0,0.0,77,0.00,,---,0.01,VWS V14.01,2013-02-06 23:05:00,
2013-02-06 17:10:00,67.9,60.8,30.04,SE,131,0.0,1.0,78,0.00,,---,0.01,VWS V14.01,2013-02-06 23:10:00,
2013-02-06 17:15:00,67.5,60.8,30.04,WSW,245,1.0,1.0,79,0.00,,---,0.01,VWS V14.01,2013-02-06 23:15:00,
2013-02-06 17:20:00,67.0,60.6,30.04,SW,218,0.0,0.0,80,0.00,,---,0.01,VWS V14.01,2013-02-06 23:20:00,
2013-02-06 17:25:00,66.5,60.5,30.05,SSE,148,0.0,1.0,81,0.00,,---,0.01,VWS V14.01,2013-02-06 23:25:00,
2013-02-06 17:30:00,66.0,60.3,30.04,SSE,150,0.0,0.0,82,0.00,,---,0.01,VWS V14.01,2013-02-06 23:30:00,
2013-02-06 17:35:00,65.5,60.2,30.05,NNE,30,0.0,2.0,83,0.00,,---,0.01,VWS V14.01,2013-02-06 23:35:00,
2013-02-06 17:40:00,65.0,59.7,30.05,West,274,0.0,1.0,83,0.00,,---,0.01,VWS V14.01,2013-02-06 23:40:00,
2013-02-06 17:45:00,64.7,59.8,30.05,SSW,203,0.0,1.0,84,0.00,,---,0.01,VWS V14.01,2013-02-06 23:45:00,
2013-02-06 17:50:00,64.3,59.4,30.05,SE,142,0.0,2.0,84,0.00,,---,0.01,VWS V14.01,2013-02-06 23:50:00,
2013-02-06 17:56:00,64.0,59.4,30.05,East,79,0.0,0.0,85,0.00,,---,0.01,VWS V14.01,2013-02-06 23:56:00,
2013-02-06 18:01:00,63.8,59.2,30.05,SW,235,0.0,0.0,85,0.00,,---,0.01,VWS V14.01,2013-02-07 00:01:00,
2013-02-06 18:06:00,63.5,59.2,30.05,South,172,1.0,2.0,86,0.00,,---,0.01,VWS V14.01,2013-02-07 00:06:00,
2013-02-06 18:11:00,63.3,59.0,30.06,SW,217,0.0,1.0,86,0.00,,---,0.01,VWS V14.01,2013-02-07 00:11:00,
2013-02-06 18:16:00,63.1,59.2,30.06,SW,214,0.0,1.0,87,0.00,,---,0.01,VWS V14.01,2013-02-07 00:16:00,
2013-02-06 18:21:00,63.0,59.1,30.07,SSW,203,1.0,1.0,87,0.00,,---,0.01,VWS V14.01,2013-02-07 00:21:00,
2013-02-06 18:26:00,62.8,58.9,30.06,SSW,212,0.0,0.0,87,0.00,,---,0.01,VWS V14.01,2013-02-07 00:26:00,
2013-02-06 18:31:00,62.6,59.0,30.07,WSW,245,0.0,2.0,88,0.00,,---,0.01,VWS V14.01,2013-02-07 00:31:00,
2013-02-06 18:36:00,62.5,58.9,30.07,SW,221,0.0,2.0,88,0.00,,---,0.01,VWS V14.01,2013-02-07 00:36:00,
2013-02-06 18:41:00,62.4,58.8,30.07,SW,235,0.0,1.0,88,0.00,,---,0.01,VWS V14.01,2013-02-07 00:41:00,
2013-02-06 18:47:00,62.3,59.0,30.07,South,173,0.0,1.0,89,0.00,,---,0.01,VWS V14.01,2013-02-07 00:47:00,
2013-02-06 18:52:00,62.2,58.9,30.07,East,98,0.0,2.0,89,0.00,,---,0.01,VWS V14.01,2013-02-07 00:52:00,
2013-02-06 18:58:00,62.1,58.8,30.07,SSE,164,0.0,0.0,89,0.00,,---,0.01,VWS V14.01,2013-02-07 00:58:00,
2013-02-06 19:03:00,62.0,58.7,30.06,South,173,0.0,0.0,89,0.00,,---,0.01,VWS V14.01,2013-02-07 01:03:00,
2013-02-06 19:08:00,61.9,58.9,30.07,South,173,0.0,0.0,90,0.00,,---,0.01,VWS V14.01,2013-02-07 01:08:00,
2013-02-06 19:13:00,61.8,58.8,30.06,South,173,0.0,0.0,90,0.00,,---,0.01,VWS V14.01,2013-02-07 01:13:00,
2013-02-06 19:18:00,61.7,58.7,30.06,SE,132,0.0,0.0,90,0.00,,---,0.01,VWS V14.01,2013-02-07 01:18:00,
2013-02-06 19:23:00,61.6,58.6,30.06,SE,133,0.0,0.0,90,0.00,,---,0.01,VWS V14.01,2013-02-07 01:23:00,
2013-02-06 19:28:00,61.5,58.5,30.06,SE,132,0.0,0.0,90,0.00,,---,0.01,VWS V14.01,2013-02-07 01:28:00,
2013-02-06 19:33:00,61.4,58.5,30.06,SE,132,0.0,0.0,90,0.00,,---,0.01,VWS V14.01,2013-02-07 01:33:00,
2013-02-06 19:38:00,61.3,58.7,30.05,SE,132,0.0,0.0,91,0.00,,---,0.01,VWS V14.01,2013-02-07 01:38:00,
2013-02-06 19:43:00,61.3,58.7,30.05,East,91,0.0,1.0,91,0.00,,---,0.01,VWS V14.01,2013-02-07 01:43:00,
2013-02-06 19:48:00,61.3,58.7,30.04,East,91,0.0,1.0,91,0.00,,---,0.01,VWS V14.01,2013-02-07 01:48:00,
2013-02-06 19:53:00,61.3,58.7,30.04,East,100,0.0,0.0,91,0.00,,---,0.01,VWS V14.01,2013-02-07 01:53:00,
2013-02-06 19:58:00,61.4,58.8,30.04,ESE,122,1.0,1.0,91,0.00,,---,0.01,VWS V14.01,2013-02-07 01:58:00,
2013-02-06 20:03:00,61.4,58.8,30.03,SE,127,0.0,1.0,91,0.00,,---,0.01,VWS V14.01,2013-02-07 02:03:00,
2013-02-06 20:08:00,61.3,58.7,30.04,SE,126,0.0,0.0,91,0.00,,---,0.01,VWS V14.01,2013-02-07 02:08:00,
2013-02-06 20:13:00,61.3,58.7,30.03,ESE,120,0.0,0.0,91,0.00,,---,0.01,VWS V14.01,2013-02-07 02:13:00,
2013-02-06 20:18:00,61.3,58.7,30.03,ESE,120,0.0,0.0,91,0.00,,---,0.01,VWS V14.01,2013-02-07 02:18:00,
2013-02-06 20:23:00,61.2,58.6,30.03,ESE,122,0.0,0.0,91,0.00,,---,0.01,VWS V14.01,2013-02-07 02:23:00,
2013-02-06 20:28:00,61.2,58.6,30.03,ESE,108,0.0,0.0,91,0.00,,---,0.01,VWS V14.01,2013-02-07 02:28:00,
2013-02-06 20:33:00,61.3,58.7,30.04,SSE,151,0.0,1.0,91,0.00,,---,0.01,VWS V14.01,2013-02-07 02:33:00,
2013-02-06 20:38:00,61.3,58.7,30.05,ESE,112,0.0,0.0,91,0.00,,---,0.01,VWS V14.01,2013-02-07 02:38:00,
2013-02-06 20:43:00,61.3,59.0,30.05,SE,140,0.0,0.0,92,0.00,,---,0.01,VWS V14.01,2013-02-07 02:43:00,
2013-02-06 20:48:00,61.3,59.0,30.06,South,189,0.0,0.0,92,0.00,,---,0.01,VWS V14.01,2013-02-07 02:48:00,
2013-02-06 20:53:00,61.3,59.0,30.07,SW,218,0.0,0.0,92,0.00,,---,0.01,VWS V14.01,2013-02-07 02:53:00,
2013-02-06 20:58:00,61.3,59.0,30.06,East,79,0.0,0.0,92,0.00,,---,0.01,VWS V14.01,2013-02-07 02:58:00,
2013-02-06 21:03:00,61.2,58.9,30.06,East,79,0.0,0.0,92,0.00,,---,0.01,VWS V14.01,2013-02-07 03:03:00,
2013-02-06 21:08:00,61.3,59.0,30.05,East,83,1.0,1.0,92,0.00,,---,0.01,VWS V14.01,2013-02-07 03:08:00,
2013-02-06 21:13:00,61.3,59.0,30.06,East,86,0.0,0.0,92,0.00,,---,0.01,VWS V14.01,2013-02-07 03:13:00,
2013-02-06 21:18:00,61.4,59.1,30.06,ESE,113,1.0,3.0,92,0.00,,---,0.01,VWS V14.01,2013-02-07 03:18:00,
2013-02-06 21:23:00,61.5,59.2,30.06,ESE,111,0.0,0.0,92,0.00,,---,0.01,VWS V14.01,2013-02-07 03:23:00,
2013-02-06 21:28:00,61.5,59.2,30.05,ESE,103,0.0,0.0,92,0.00,,---,0.01,VWS V14.01,2013-02-07 03:28:00,
2013-02-06 21:33:00,61.6,59.3,30.05,ESE,103,0.0,0.0,92,0.00,,---,0.01,VWS V14.01,2013-02-07 03:33:00,
2013-02-06 21:38:00,61.6,59.3,30.05,ESE,110,0.0,0.0,92,0.00,,---,0.01,VWS V14.01,2013-02-07 03:38:00,
2013-02-06 21:43:00,61.6,59.3,30.05,ESE,105,0.0,0.0,92,0.00,,---,0.01,VWS V14.01,2013-02-07 03:43:00,
2013-02-06 21:49:00,61.6,59.3,30.05,East,96,0.0,0.0,92,0.00,,---,0.01,VWS V14.01,2013-02-07 03:49:00,
2013-02-06 21:54:00,61.6,59.3,30.05,East,91,0.0,0.0,92,0.00,,---,0.01,VWS V14.01,2013-02-07 03:54:00,
2013-02-06 21:59:00,61.6,59.6,30.05,ESE,107,1.0,2.0,93,0.00,,---,0.01,VWS V14.01,2013-02-07 03:59:00,
2013-02-06 22:04:00,61.7,59.7,30.06,ESE,112,0.0,0.0,93,0.00,,---,0.01,VWS V14.01,2013-02-07 04:04:00,
2013-02-06 22:09:00,61.6,59.6,30.07,SSW,197,0.0,0.0,93,0.00,,---,0.01,VWS V14.01,2013-02-07 04:09:00,
2013-02-06 22:14:00,61.6,59.6,30.07,WSW,242,0.0,0.0,93,0.00,,---,0.01,VWS V14.01,2013-02-07 04:14:00,
2013-02-06 22:19:00,61.7,60.0,30.06,SE,125,0.0,0.0,94,0.00,,---,0.01,VWS V14.01,2013-02-07 04:19:00,
2013-02-06 22:24:00,61.7,60.0,30.06,ENE,77,0.0,0.0,94,0.00,,---,0.01,VWS V14.01,2013-02-07 04:24:00,
2013-02-06 22:29:00,61.6,59.9,30.05,ENE,76,0.0,0.0,94,0.00,,---,0.01,VWS V14.01,2013-02-07 04:29:00,
2013-02-06 22:34:00,61.5,59.8,30.05,ENE,77,0.0,0.0,94,0.00,,---,0.01,VWS V14.01,2013-02-07 04:34:00,
2013-02-06 22:39:00,61.4,59.7,30.05,ENE,77,0.0,0.0,94,0.00,,---,0.01,VWS V14.01,2013-02-07 04:39:00,
2013-02-06 22:44:00,61.3,59.6,30.05,ENE,77,0.0,0.0,94,0.00,,---,0.01,VWS V14.01,2013-02-07 04:44:00,
2013-02-06 22:49:00,61.2,59.8,30.06,ENE,76,0.0,0.0,95,0.00,,---,0.01,VWS V14.01,2013-02-07 04:49:00,
2013-02-06 22:54:00,61.1,59.7,30.06,ENE,76,0.0,0.0,95,0.00,,---,0.01,VWS V14.01,2013-02-07 04:54:00,
2013-02-06 22:59:00,61.0,59.6,30.05,ENE,76,0.0,0.0,95,0.00,,---,0.01,VWS V14.01,2013-02-07 04:59:00,
2013-02-06 23:00:00,61.0,59.6,30.05,ENE,76,0.0,0.0,95,0.00,,---,0.01,VWS V14.01,2013-02-07 05:00:00,
2013-02-06 23:01:00,61.0,59.6,30.05,ENE,77,0.0,0.0,95,0.00,,---,0.01,VWS V14.01,2013-02-07 05:01:00,
2013-02-06 23:02:00,61.0,59.6,30.05,ENE,77,0.0,0.0,95,0.00,,---,0.01,VWS V14.01,2013-02-07 05:02:00,
2013-02-06 23:07:00,60.9,59.5,30.04,ENE,77,0.0,0.0,95,0.00,,---,0.01,VWS V14.01,2013-02-07 05:07:00,
2013-02-06 23:12:00,60.8,59.7,30.05,ENE,77,0.0,0.0,96,0.00,,---,0.01,VWS V14.01,2013-02-07 05:12:00,
2013-02-06 23:17:00,60.9,59.8,30.04,East,100,0.0,0.0,96,0.00,,---,0.01,VWS V14.01,2013-02-07 05:17:00,
2013-02-06 23:22:00,60.9,59.8,30.05,East,100,0.0,0.0,96,0.00,,---,0.01,VWS V14.01,2013-02-07 05:22:00,
2013-02-06 23:27:00,60.9,59.8,30.05,East,101,0.0,0.0,96,0.00,,---,0.01,VWS V14.01,2013-02-07 05:27:00,
2013-02-06 23:32:00,60.8,59.7,30.05,East,100,0.0,0.0,96,0.00,,---,0.01,VWS V14.01,2013-02-07 05:32:00,
2013-02-06 23:37:00,60.8,59.7,30.05,East,101,0.0,0.0,96,0.00,,---,0.01,VWS V14.01,2013-02-07 05:37:00,
2013-02-06 23:42:00,60.8,59.7,30.05,East,100,0.0,0.0,96,0.00,,---,0.01,VWS V14.01,2013-02-07 05:42:00,
2013-02-06 23:47:00,60.8,59.7,30.04,ESE,122,0.0,0.0,96,0.01,,---,0.02,VWS V14.01,2013-02-07 05:47:00,
2013-02-06 23:52:00,60.7,59.6,30.04,ESE,122,0.0,0.0,96,0.01,,---,0.02,VWS V14.01,2013-02-07 05:52:00,
2013-02-06 23:57:00,60.7,59.6,30.03,ESE,122,0.0,0.0,96,0.01,,---,0.02,VWS V14.01,2013-02-07 05:57:00,